Weather History for Madison, MN

Change the Weather History Date:

Friday, October 4, 2013

  Actual Average (KAQP) Record (KAQP)
Temperature  
Mean Temperature 56 °F -  
Max Temperature 57 °F 62 °F 84 °F (2011)
Min Temperature 55 °F 37 °F 23 °F (2004)
Degree Days  
Heating Degree Days 9    
Growing Degree Days 6 (Base 50)    
Moisture  
Dew Point 54 °F    
Average Humidity 93    
Maximum Humidity 100    
Minimum Humidity 88    
Precipitation  
Precipitation 0.25 in - - ()
Sea Level Pressure  
Sea Level Pressure 29.91 in    
Wind  
Wind Speed 12 mph (ENE)    
Max Wind Speed 23 mph    
Max Gust Speed 30 mph    
Visibility 7 miles    
Events Rain , Thunderstorm    
Averages and records for this station are not official NWS values.
T = Trace of Precipitation, MM = Missing Value Source: NWS Daily Summary

Daily Weather History Graph

Daily Weather History Graph

Search for Another Location

Airport:

Trip Planner

Search our weather history database for the weather conditions in past years. The results will help you decide how hot, cold, wet, or windy it might be!

Date:

Astronomy

Oct. 04, 2013 Rise Set
Actual Time 7:26 AM CDT 6:59 PM CDT
Civil Twilight 6:57 AM CDT 7:28 PM CDT
Nautical Twilight 6:23 AM CDT 8:02 PM CDT
Astronomical Twilight 5:49 AM CDT 8:36 PM CDT
Moon 7:04 AM CDT (10/4) 6:40 PM CDT (10/4)
Length of Visible Light 12h 30m
Length of Day
11h 32m
Waning Crescent, 0% of the Moon is Illuminated
Oct 4
Waning Crescent
Oct 4
New
Oct 11
First Quarter
Oct 18
Full
Oct 26
Last Quarter

Hourly Weather History & Observations

Time (CDT) Temp. Dew Point Humidity Pressure Visibility Wind Dir Wind Speed Gust Speed Precip Events Conditions
12:14 AM 55.4 °F 55.4 °F 100% 29.97 in 4.0 mi NNE 10.4 mph - N/A   Overcast
12:33 AM 55.4 °F 55.4 °F 100% 29.96 in 5.0 mi NNE 10.4 mph - N/A   Overcast
12:54 AM 55.4 °F 53.6 °F 94% 29.95 in 10.0 mi NE 11.5 mph - N/A   Overcast
1:13 AM 55.4 °F 53.6 °F 94% 29.96 in 10.0 mi NE 11.5 mph - 0.01 in   Overcast
1:34 AM 55.4 °F 53.6 °F 94% 29.96 in 10.0 mi NNE 11.5 mph - 0.01 in   Overcast
1:54 AM 55.4 °F 53.6 °F 94% 29.96 in 10.0 mi NE 9.2 mph - 0.01 in   Overcast
2:13 AM 55.4 °F 53.6 °F 94% 29.98 in 10.0 mi NE 5.8 mph - N/A   Overcast
2:34 AM 55.4 °F 53.6 °F 94% 29.98 in 10.0 mi NE 9.2 mph - N/A   Overcast
2:54 AM 55.4 °F 53.6 °F 94% 29.96 in 10.0 mi NNE 11.5 mph - N/A   Overcast
3:13 AM 55.4 °F 53.6 °F 94% 29.96 in 10.0 mi NE 10.4 mph - N/A   Overcast
3:34 AM 55.4 °F 51.8 °F 88% 29.96 in 10.0 mi NE 6.9 mph - N/A   Overcast
3:54 AM 55.4 °F 51.8 °F 88% 29.96 in 10.0 mi NE 9.2 mph - N/A   Overcast
4:13 AM 55.4 °F 51.8 °F 88% 29.95 in 10.0 mi NE 11.5 mph - N/A   Overcast
4:34 AM 55.4 °F 51.8 °F 88% 29.95 in 10.0 mi NE 9.2 mph - N/A   Overcast
4:54 AM 55.4 °F 51.8 °F 88% 29.97 in 10.0 mi NE 5.8 mph - N/A   Overcast
5:13 AM 55.4 °F 51.8 °F 88% 29.96 in 10.0 mi NE 9.2 mph - N/A   Overcast
5:34 AM 55.4 °F 51.8 °F 88% 29.96 in 7.0 mi ENE 8.1 mph - N/A   Overcast
5:54 AM 55.4 °F 53.6 °F 94% 29.97 in 4.0 mi NE 4.6 mph - N/A   Overcast
6:13 AM 55.4 °F 53.6 °F 94% 29.97 in 10.0 mi ENE 5.8 mph - N/A   Overcast
6:34 AM 55.4 °F 53.6 °F 94% 29.96 in 7.0 mi NE 10.4 mph - N/A   Overcast
6:54 AM 55.4 °F 53.6 °F 94% 29.96 in 7.0 mi NE 8.1 mph - N/A   Overcast
7:13 AM 55.4 °F 53.6 °F 94% 29.98 in 5.0 mi NE 9.2 mph - N/A   Overcast
7:34 AM 55.4 °F 53.6 °F 94% 29.98 in 5.0 mi NE 9.2 mph - N/A   Overcast
7:54 AM 55.4 °F 53.6 °F 94% 29.98 in 7.0 mi NE 9.2 mph - N/A   Overcast
8:13 AM 55.4 °F 53.6 °F 94% 29.97 in 5.0 mi NE 8.1 mph - N/A   Mostly Cloudy
8:34 AM 55.4 °F 53.6 °F 94% 29.97 in 4.0 mi NE 12.7 mph - N/A   Scattered Clouds
8:54 AM 55.4 °F 53.6 °F 94% 29.97 in 4.0 mi NE 9.2 mph - N/A   Mostly Cloudy
9:13 AM 55.4 °F 53.6 °F 94% 29.96 in 5.0 mi NE 11.5 mph 16.1 mph N/A   Mostly Cloudy
9:34 AM 55.4 °F 53.6 °F 94% 29.97 in 7.0 mi NE 10.4 mph - N/A   Mostly Cloudy
9:53 AM 55.4 °F 53.6 °F 94% 29.96 in 10.0 mi NE 12.7 mph 18.4 mph N/A   Mostly Cloudy
10:14 AM 55.4 °F 53.6 °F 94% 29.97 in 10.0 mi NE 15.0 mph 20.7 mph N/A   Overcast
10:34 AM 55.4 °F 53.6 °F 94% 29.96 in 10.0 mi NE 13.8 mph 17.3 mph N/A   Overcast
10:53 AM 55.4 °F 53.6 °F 94% 29.98 in 10.0 mi ENE 15.0 mph - N/A   Overcast
11:14 AM 55.4 °F 53.6 °F 94% 29.98 in 10.0 mi NE 11.5 mph - N/A   Overcast
11:33 AM 55.4 °F 53.6 °F 94% 29.98 in 10.0 mi ENE 11.5 mph - N/A   Overcast
11:53 AM 55.4 °F 53.6 °F 94% 29.97 in 10.0 mi ENE 17.3 mph 21.9 mph N/A   Overcast
12:14 PM 55.4 °F 53.6 °F 94% 29.96 in 10.0 mi ENE 13.8 mph - N/A   Overcast
12:34 PM 55.4 °F 53.6 °F 94% 29.96 in 7.0 mi ENE 17.3 mph 23.0 mph N/A   Overcast
12:53 PM 55.4 °F 53.6 °F 94% 29.95 in 3.0 mi ENE 16.1 mph 21.9 mph N/A   Overcast
1:14 PM 57.2 °F 53.6 °F 88% 29.94 in 7.0 mi ENE 13.8 mph 19.6 mph N/A   Mostly Cloudy
1:34 PM 57.2 °F 53.6 °F 88% 29.94 in 10.0 mi ENE 11.5 mph 18.4 mph N/A   Overcast
1:53 PM 57.2 °F 53.6 °F 88% 29.92 in 10.0 mi ENE 16.1 mph 20.7 mph N/A   Overcast
2:14 PM 57.2 °F 53.6 °F 88% 29.91 in 3.0 mi East 17.3 mph 25.3 mph N/A   Overcast
2:34 PM 57.2 °F 53.6 °F 88% 29.90 in 1.5 mi ENE 16.1 mph 23.0 mph N/A Rain Heavy Rain
2:53 PM 57.2 °F 53.6 °F 88% 29.89 in 2.0 mi ENE 12.7 mph - 0.01 in Rain Rain
3:14 PM 57.2 °F 55.4 °F 94% 29.89 in 3.0 mi ENE 15.0 mph - N/A Rain Light Rain
3:34 PM 57.2 °F 55.4 °F 94% 29.88 in 10.0 mi ENE 15.0 mph 21.9 mph N/A   Mostly Cloudy
3:54 PM 57.2 °F 53.6 °F 88% 29.89 in 4.0 mi East 12.7 mph 21.9 mph N/A   Overcast
4:13 PM 57.2 °F 55.4 °F 94% 29.88 in 4.0 mi East 17.3 mph 23.0 mph N/A   Overcast
4:34 PM 57.2 °F 55.4 °F 94% 29.88 in 2.0 mi East 15.0 mph 18.4 mph N/A   Overcast
4:54 PM 57.2 °F 55.4 °F 94% 29.88 in 4.0 mi East 12.7 mph 23.0 mph N/A   Overcast
5:13 PM 57.2 °F 55.4 °F 94% 29.88 in 1.8 mi East 12.7 mph 23.0 mph N/A   Overcast
5:34 PM 57.2 °F 55.4 °F 94% 29.87 in 1.8 mi East 15.0 mph 19.6 mph N/A   Overcast
5:54 PM 57.2 °F 55.4 °F 94% 29.86 in 2.0 mi East 12.7 mph - N/A Rain Light Rain
6:13 PM 57.2 °F 55.4 °F 94% 29.84 in 2.0 mi ENE 16.1 mph 21.9 mph N/A Rain , Thunderstorm Light Thunderstorms and Rain
6:34 PM 57.2 °F 55.4 °F 94% 29.83 in 4.0 mi ENE 17.3 mph 20.7 mph N/A Rain Light Rain
6:53 PM 57.2 °F 55.4 °F 94% 29.82 in 7.0 mi ENE 18.4 mph 27.6 mph 0.05 in Rain Heavy Rain
7:14 PM 57.2 °F 55.4 °F 94% 29.82 in 10.0 mi ENE 17.3 mph 26.5 mph 0.01 in Rain Light Rain
7:33 PM 57.2 °F 55.4 °F 94% 29.81 in 7.0 mi ENE 17.3 mph 26.5 mph 0.02 in Rain Rain
7:53 PM 57.2 °F 55.4 °F 94% 29.80 in 4.0 mi ENE 20.7 mph 27.6 mph 0.02 in Rain Light Rain
8:14 PM 57.2 °F 55.4 °F 94% 29.80 in 4.0 mi ENE 20.7 mph 26.5 mph N/A Rain Light Rain
8:34 PM 57.2 °F 55.4 °F 94% 29.80 in 3.0 mi ENE 18.4 mph 24.2 mph 0.01 in Rain Light Rain
8:53 PM 57.2 °F 55.4 °F 94% 29.80 in 3.0 mi East 17.3 mph 26.5 mph 0.04 in Rain Heavy Rain
9:14 PM 57.2 °F 55.4 °F 94% 29.77 in 7.0 mi East 18.4 mph 26.5 mph 0.01 in Rain Light Rain
9:34 PM 57.2 °F 55.4 °F 94% 29.76 in 7.0 mi East 23.0 mph 29.9 mph 0.01 in Rain Light Rain
9:53 PM 57.2 °F 55.4 °F 94% 29.79 in 7.0 mi East 17.3 mph 25.3 mph 0.03 in Rain , Thunderstorm Heavy Thunderstorms and Rain
10:14 PM 57.2 °F 55.4 °F 94% 29.79 in 7.0 mi East 16.1 mph 23.0 mph 0.05 in Rain , Thunderstorm Thunderstorms and Rain
10:34 PM 57.2 °F 55.4 °F 94% 29.78 in 5.0 mi East 10.4 mph - 0.09 in Rain Light Rain
10:53 PM 57.2 °F 55.4 °F 94% 29.78 in 7.0 mi East 11.5 mph 20.7 mph 0.09 in Rain Light Rain
11:14 PM 57.2 °F 55.4 °F 94% 29.78 in 10.0 mi East 15.0 mph 19.6 mph N/A   Overcast
11:33 PM 57.2 °F 55.4 °F 94% 29.77 in 10.0 mi East 15.0 mph 21.9 mph N/A   Overcast
11:54 PM 57.2 °F 55.4 °F 94% 29.76 in 10.0 mi East 12.7 mph - N/A   Overcast